Theta_e
297 297 297 297 298 298 298 298 298 299 300 300 300 301 301 302 302 302 302 303 303 303 304 305 306 308 310 311 313 314 314 314 310 311 311 311 310 312 312 311 312 315 316
295 294 293 293 294 294 294 295 296 296 297 298 298 299 299 300 299 299 298 297 296 296 297 298 298 301 300 302 304 304 303 304 305 305 310 312 311 311 312 313 313 313 314
292 291 290 289 289 290 291 292 293 293 293 295 295 295 295 296 296 296 294 294 294 294 295 295 296 296 296 296 294 295 297 299 301 301 301 304 305 307 307 310 310 313 313
289 287 286 285 286 286 287 288 289 290 290 291 291 292 293 293 294 292 292 291 291 293 294 294 295 295 295 296 295 296 296 296 297 296 296 297 298 299 299 299 300 299 306
284 283 282 283 283 283 283 284 286 287 288 288 288 288 289 291 292 289 289 289 289 289 291 293 295 293 290 292 294 295 295 294 293 293 292 293 293 293 293 297 296 298 299
280 278 279 279 280 280 280 282 282 283 284 285 285 286 286 287 290 291 290 287 287 287 288 290 292 289 291 292 292 293 293 291 290 290 289 289 290 292 294 294 292 292 291
276 276 276 277 277 278 279 279 279 279 280 280 282 282 283 284 288 289 289 286 286 287 287 287 288 289 287 289 290 291 290 290 292 290 288 288 289 291 291 290 290 290 290
274 274 274 275 275 276 276 277 277 277 277 278 279 280 281 283 286 287 287 286 286 286 286 285 285 287 287 286 287 286 286 286 287 288 288 289 290 291 291 291 291 290 291
272 272 272 273 273 274 274 274 275 276 277 277 279 280 281 282 285 286 285 283 283 282 282 283 283 284 286 288 285 283 283 284 287 288 290 291 290 290 291 290 287 286 287
270 271 272 273 273 273 273 273 275 275 276 277 278 280 280 279 282 282 283 282 280 279 280 281 282 282 284 284 282 281 280 281 282 283 284 285 288 288 290 290 289 287 286
270 271 271 272 273 273 273 273 274 274 275 275 276 277 277 278 277 279 281 279 278 278 278 278 280 281 282 283 283 281 281 282 282 282 282 283 284 285 287 288 288 287 285
268 268 268 269 271 271 271 271 272 273 272 273 273 273 275 275 276 277 278 279 279 277 276 277 278 280 281 281 281 282 283 282 279 279 281 282 282 282 286 287 286 286 286
265 266 266 267 267 268 267 269 269 270 270 270 270 270 271 273 274 275 276 277 278 276 277 277 279 279 279 279 279 280 278 277 277 279 280 282 283 284 281 278 283 284 284
264 264 265 265 265 266 267 268 267 267 267 268 268 268 269 270 271 273 274 275 275 275 276 275 276 277 277 277 275 276 276 276 277 278 281 283 284 277 281 280 282 284 283
263 263 263 264 264 264 266 266 266 268 269 267 267 268 267 267 270 273 273 272 273 274 274 273 272 272 272 272 271 272 273 275 276 278 279 279 280 281 281 276 280 283 281
261 261 262 262 263 263 263 263 267 268 269 270 271 270 269 271 272 273 274 274 275 275 271 268 268 268 268 268 268 268 271 273 274 273 274 275 276 277 279 281 282 283 282
258 259 259 260 261 261 261 260 259 262 267 267 268 269 270 270 271 272 272 273 273 272 264 264 264 265 265 266 266 267 268 269 270 270 270 271 272 273 274 277 279 281 281
256 257 258 259 259 259 259 259 259 258 258 259 263 265 268 269 269 270 271 270 263 264 262 261 261 262 263 264 265 265 265 266 267 267 268 269 269 269 270 272 276 278 280
255 256 257 257 257 257 257 258 258 258 257 257 258 261 262 265 266 268 269 263 260 260 261 261 261 262 262 262 262 263 263 263 264 264 265 265 267 268 268 270 272 274 278
253 254 255 255 256 256 257 257 256 256 256 256 256 257 258 259 260 261 261 261 260 260 260 260 260 261 261 261 261 261 261 261 261 262 263 264 265 266 267 267 268 271 276
251 252 253 254 254 255 255 255 256 256 256 256 256 258 264 262 260 260 259 259 259 259 259 260 260 260 260 260 260 260 259 260 260 260 261 262 263 263 265 266 266 267 267
250 251 252 253 254 254 254 255 255 255 255 255 256 258 264 259 258 258 258 258 259 260 261 260 260 260 260 260 260 259 259 259 259 259 259 260 261 262 263 263 264 264 267
253 251 252 252 252 253 253 254 254 255 255 256 256 257 257 257 257 258 258 259 260 261 261 261 261 260 261 261 261 260 259 259 259 259 259 259 259 260 261 262 263 263 263
249 251 251 251 251 252 253 253 254 254 255 255 256 256 257 257 257 258 259 260 261 261 262 261 261 261 261 261 261 261 260 260 260 260 259 259 258 259 259 260 260 261 263
248 249 250 250 250 251 252 253 253 254 254 255 255 256 256 257 257 258 259 260 261 261 261 262 262 262 261 261 261 260 261 262 261 261 260 259 258 258 258 259 259 259 261
251 250 251 251 251 251 252 252 252 253 254 254 255 255 256 256 257 258 259 260 261 261 261 262 262 262 262 262 262 262 262 263 261 261 260 259 258 258 258 258 258 259 259
Wind_Speed
6 5 6 6 6 6 6 6 6 6 6 6 6 6 5 5 5 5 5 5 5 5 4 4 5 5 3 4 4 5 7 8 12 14 7 5 6 8 7 7 9 11 10
6 6 7 7 7 7 7 7 6 6 6 6 6 6 5 5 5 5 4 5 5 5 6 6 5 4 5 4 3 4 4 5 5 12 9 8 8 6 9 11 9 9 10
6 7 8 9 8 8 8 8 7 7 6 6 5 5 5 5 5 4 4 4 4 4 5 5 5 5 5 3 4 4 4 6 6 7 13 8 8 7 8 8 10 11 9
8 9 9 9 9 8 8 8 8 7 6 6 5 5 5 5 4 5 5 5 5 5 5 5 5 5 6 8 7 7 6 6 6 7 9 9 8 7 6 9 12 5 9
10 10 10 9 9 8 9 8 8 8 7 6 6 6 6 5 3 4 4 5 6 6 6 6 6 7 9 7 5 7 5 6 6 8 9 9 7 8 7 8 12 11 10
12 11 10 10 10 10 9 9 8 9 9 8 8 7 6 5 11 8 6 4 5 6 6 6 5 6 7 11 12 11 9 9 10 9 9 9 10 9 6 6 10 11 10
10 10 10 10 10 9 9 9 9 9 9 8 8 8 8 7 15 16 13 5 6 6 6 5 5 4 5 5 8 11 12 13 13 10 11 12 14 11 11 11 10 10 12
10 10 10 9 9 9 8 8 8 7 7 7 8 8 7 6 14 14 15 6 6 7 7 8 8 7 5 6 8 8 7 9 10 8 11 11 13 12 11 12 13 13 11
11 11 10 10 10 9 10 10 9 8 7 7 7 9 9 7 14 15 12 6 6 7 6 7 9 7 10 15 10 11 10 11 12 18 18 20 23 22 17 10 8 7 8
11 11 10 10 9 9 10 10 9 8 10 8 9 6 8 8 15 19 15 6 7 6 6 6 10 9 15 19 12 11 15 12 11 13 11 13 14 11 16 10 7 9 6
10 11 10 10 10 10 10 9 9 9 9 8 9 8 8 8 9 17 18 9 7 7 7 7 5 16 21 21 22 12 14 16 16 13 12 10 8 7 6 6 6 6 6
10 10 10 11 9 9 10 10 10 9 9 8 9 7 7 8 11 13 17 17 16 10 10 9 8 21 25 25 19 22 24 22 10 10 11 11 8 6 5 6 6 8 8
8 7 7 8 9 9 9 10 8 9 8 8 7 7 8 8 8 17 16 18 19 14 10 17 27 26 25 19 21 24 22 10 9 9 11 11 8 8 5 4 6 7 9
8 7 7 8 9 8 7 7 7 7 8 8 9 9 9 9 8 8 9 10 14 13 17 13 19 23 23 20 14 11 9 9 10 11 11 11 9 4 7 5 5 6 7
9 8 8 8 9 8 8 8 7 9 10 9 9 9 10 9 10 21 19 13 12 16 20 12 11 10 10 9 9 9 10 11 10 8 10 10 10 9 9 4 5 7 8
9 8 8 7 7 7 7 7 12 15 19 19 20 16 9 21 24 26 26 27 27 28 13 12 12 12 12 12 11 11 10 12 9 10 11 10 10 11 11 8 9 8 9
9 9 7 8 7 7 7 7 9 13 18 19 21 22 23 23 25 26 26 26 26 22 8 10 11 11 11 12 11 11 11 10 12 11 12 12 11 11 13 12 11 11 11
7 9 6 6 6 6 7 7 7 7 10 12 15 18 21 24 25 26 26 23 10 10 9 10 11 11 11 12 12 12 11 11 11 11 12 11 11 12 12 12 12 13 12
7 6 6 6 6 7 7 7 7 8 8 9 10 17 13 23 26 24 23 8 10 10 10 11 11 12 12 12 12 12 12 12 11 12 12 12 12 12 13 13 13 17 19
5 8 7 6 7 7 6 7 8 8 8 8 9 10 10 12 12 13 11 10 10 10 11 12 12 12 12 13 12 12 12 12 12 11 11 11 11 12 13 14 13 15 12
4 5 7 6 7 7 8 8 9 9 9 10 11 12 24 15 13 13 12 12 12 13 13 13 12 12 11 12 12 12 13 12 12 12 12 12 12 12 12 13 13 13 14
4 6 6 7 8 8 8 8 9 10 10 11 11 13 26 12 12 13 13 13 13 14 13 14 14 13 13 13 13 13 14 14 12 12 12 13 12 13 13 13 13 14 14
6 5 7 7 7 10 9 9 9 10 11 11 11 12 11 12 12 14 15 15 14 15 14 14 15 15 14 14 14 14 15 14 13 12 13 13 13 13 13 13 12 11 10
5 7 8 8 8 8 9 10 9 12 12 11 12 12 12 13 14 16 16 15 15 16 15 15 15 20 18 17 15 15 15 15 13 14 17 14 14 15 14 15 15 17 14
5 6 7 8 8 8 10 10 10 11 11 11 12 12 13 13 14 15 16 15 15 16 18 17 16 20 24 26 24 25 25 28 23 21 13 16 17 19 16 13 15 15 16
6 7 8 8 8 8 9 10 10 10 11 11 11 12 13 14 15 16 16 17 16 17 22 17 20 27 30 25 27 29 29 29 26 26 17 15 16 15 14 17 20 15 17
Wind_Direction
51 52 53 38 38 45 46 36 28 27 21 23 16 7 6 7 9 2 352 353 354 348 349 350 314 326 306 299 282 265 262 256 268 284 276 267 267 261 263 249 257 263 263
44 55 46 36 31 34 31 21 18 22 18 16 11 7 3 2 358 6 17 6 355 337 329 326 313 324 319 306 298 308 307 315 324 300 301 293 277 262 270 267 260 255 257
52 55 42 35 30 25 21 16 15 11 9 12 14 8 357 352 355 23 24 6 343 323 314 311 307 315 308 335 323 301 306 306 301 294 295 300 300 311 310 301 283 276 266
59 54 45 33 28 24 19 14 8 1 4 2 1 355 359 356 35 14 360 347 328 319 304 299 300 296 291 306 304 297 295 290 278 282 286 300 302 309 294 297 293 289 301
56 49 36 26 25 20 17 11 9 9 6 359 1 359 1 6 41 16 357 335 322 315 303 301 297 309 308 299 309 295 309 293 285 287 291 298 300 307 303 304 294 294 290
52 41 27 24 20 13 9 12 15 13 7 5 3 358 6 6 350 351 351 326 311 304 303 296 296 291 287 298 298 297 302 297 297 297 296 290 290 297 302 314 307 300 308
48 38 29 19 13 8 6 10 13 8 358 356 358 359 353 350 355 353 349 327 305 296 295 298 293 281 287 282 298 288 284 283 277 281 279 278 287 288 300 297 283 282 278
35 29 19 12 8 360 3 2 1 354 352 346 346 345 343 342 348 351 340 317 321 308 322 324 314 310 307 312 306 291 283 282 273 268 264 274 276 281 292 288 291 287 282
27 20 12 6 1 358 1 355 347 344 345 349 344 336 338 340 353 0 355 330 333 329 323 319 315 317 321 322 321 308 297 287 284 279 276 281 283 280 275 284 279 279 292
11 10 5 5 1 2 354 352 339 344 343 343 338 343 343 354 0 359 349 343 342 328 313 308 312 314 327 322 310 303 298 295 304 297 285 278 270 273 269 261 269 276 283
7 1 0 0 351 3 350 343 340 342 344 337 339 346 344 353 348 352 347 345 326 322 328 312 310 316 313 311 307 298 291 300 297 291 286 276 262 253 260 251 252 245 270
7 1 357 359 360 351 348 342 344 347 343 342 338 338 328 327 332 338 336 331 327 317 309 304 301 302 311 307 306 298 298 302 292 281 276 277 270 253 254 262 248 261 249
353 350 351 357 0 346 342 346 344 343 343 335 332 330 320 325 326 325 324 319 321 312 306 301 306 306 304 303 300 299 303 288 277 272 274 272 262 259 251 245 244 243 260
342 345 352 358 348 345 339 346 338 340 337 330 325 323 314 318 317 319 313 312 312 310 305 296 296 302 301 292 297 296 285 281 278 276 276 277 275 263 257 232 247 266 271
333 346 1 353 350 338 347 338 336 329 322 321 315 310 315 313 311 317 318 313 309 305 312 309 304 304 301 298 294 293 291 288 276 277 287 292 287 278 268 242 245 250 248
343 348 353 344 335 335 337 322 316 321 324 321 319 317 313 314 317 316 317 315 313 315 311 311 308 306 303 304 299 294 288 285 293 295 287 287 292 292 286 274 258 243 254
340 338 335 327 327 332 323 317 317 319 318 317 318 319 320 312 315 316 313 314 315 321 311 295 295 295 295 293 293 292 290 288 291 288 290 287 287 289 290 279 269 263 250
325 316 313 312 313 308 304 302 299 301 311 315 315 314 311 316 314 311 310 312 309 298 285 284 284 285 285 285 286 287 287 287 284 281 279 283 285 283 279 279 282 274 263
321 314 313 300 297 296 297 298 294 297 299 293 302 307 311 314 312 307 305 295 281 278 277 277 277 278 279 279 281 281 280 281 282 283 280 276 272 273 274 273 271 270 268
284 287 299 300 305 306 299 296 298 293 295 294 295 295 310 311 307 313 306 294 284 280 281 278 278 275 275 276 277 277 277 277 278 277 277 277 276 270 269 275 275 276 286
286 295 297 298 296 296 295 293 292 291 288 288 288 290 296 304 300 293 290 287 286 286 286 285 282 277 274 273 272 271 271 272 272 274 274 274 272 270 269 268 277 280 283
283 283 282 282 285 284 282 282 284 285 286 286 287 289 299 297 287 286 286 281 278 276 276 278 277 277 276 274 273 270 268 267 266 265 266 269 269 268 270 269 273 277 269
252 259 284 283 278 282 284 281 280 278 281 282 286 291 293 288 285 283 283 285 284 280 277 274 273 272 269 267 265 263 264 263 261 261 261 262 264 265 266 266 269 277 280
262 271 278 279 278 277 277 280 280 280 281 284 288 287 285 285 285 285 286 285 284 282 279 276 272 270 272 266 263 261 260 258 256 254 254 255 257 262 261 259 256 256 256
247 261 266 270 275 277 282 280 281 282 282 283 285 284 286 287 288 288 287 287 287 286 284 282 276 274 269 267 261 258 257 258 255 252 250 250 252 255 258 262 265 267 266
257 257 263 268 270 271 272 278 281 283 285 286 285 286 287 289 289 289 291 291 291 290 290 285 279 275 273 271 265 262 258 256 253 253 247 246 247 248 248 251 254 254 257